Time,TemperatureF,DewpointF,PressureIn,WindDirection,WindDirectionDegrees,WindSpeedMPH,WindSpeedGustMPH,Humidity,HourlyPrecipIn,Conditions,Clouds,dailyrainin,SoftwareType,DateUTC
2015-05-27 00:04:00,58.2,37.5,29.99,ENE,77,1.0,3.0,46,0.00,,FEW180,0.00,VWS V15.00,2015-05-27 07:04:00,
2015-05-27 00:09:00,58.4,36.6,30.00,East,94,0.0,3.0,44,0.00,,FEW180,0.00,VWS V15.00,2015-05-27 07:09:00,
2015-05-27 00:14:00,58.8,36.4,29.99,ESE,105,0.0,3.0,43,0.00,,FEW180,0.00,VWS V15.00,2015-05-27 07:14:00,
2015-05-27 00:19:00,58.8,36.4,29.99,ESE,105,0.0,3.0,43,0.00,,FEW180,0.00,VWS V15.00,2015-05-27 07:19:00,
2015-05-27 00:24:00,58.6,36.2,29.99,ENE,73,0.0,3.0,43,0.00,,FEW180,0.00,VWS V15.00,2015-05-27 07:24:00,
2015-05-27 00:29:00,58.6,36.2,29.99,ENE,74,1.0,3.0,43,0.00,,FEW180,0.00,VWS V15.00,2015-05-27 07:29:00,
2015-05-27 00:34:00,58.4,36.0,29.99,ENE,63,1.0,3.0,43,0.00,,FEW180,0.00,VWS V15.00,2015-05-27 07:34:00,
2015-05-27 00:39:00,58.1,36.3,29.99,East,94,0.0,3.0,44,0.00,,FEW180,0.00,VWS V15.00,2015-05-27 07:39:00,
2015-05-27 00:44:00,58.3,35.9,29.99,East,96,1.0,3.0,43,0.00,,FEW180,0.00,VWS V15.00,2015-05-27 07:44:00,
2015-05-27 00:49:00,58.5,36.1,30.00,East,91,0.0,3.0,43,0.00,,FEW180,0.00,VWS V15.00,2015-05-27 07:49:00,
2015-05-27 00:54:00,58.4,36.0,29.99,ESE,107,0.0,3.0,43,0.00,,FEW180,0.00,VWS V15.00,2015-05-27 07:54:00,
2015-05-27 00:59:00,58.4,36.0,30.00,ESE,103,0.0,3.0,43,0.00,,FEW180,0.00,VWS V15.00,2015-05-27 07:59:00,
2015-05-27 01:04:00,58.2,35.8,29.99,East,101,0.0,3.0,43,0.00,,FEW180,0.00,VWS V15.00,2015-05-27 08:04:00,
2015-05-27 01:09:00,58.0,36.2,30.00,ESE,117,0.0,3.0,44,0.00,,FEW180,0.00,VWS V15.00,2015-05-27 08:09:00,
2015-05-27 01:14:00,57.6,36.4,29.99,ESE,116,1.0,3.0,45,0.00,,FEW180,0.00,VWS V15.00,2015-05-27 08:14:00,
2015-05-27 01:19:00,57.7,36.5,29.99,ESE,114,0.0,3.0,45,0.00,,FEW180,0.00,VWS V15.00,2015-05-27 08:19:00,
2015-05-27 01:24:00,57.8,36.0,29.99,ESE,113,0.0,3.0,44,0.00,,FEW180,0.00,VWS V15.00,2015-05-27 08:24:00,
2015-05-27 01:29:00,57.6,36.4,30.00,SSW,206,1.0,3.0,45,0.00,,FEW180,0.00,VWS V15.00,2015-05-27 08:29:00,
2015-05-27 01:34:00,56.7,36.2,29.99,SSE,156,0.0,3.0,46,0.00,,FEW180,0.00,VWS V15.00,2015-05-27 08:34:00,
2015-05-27 01:44:00,56.4,35.9,30.00,NW,311,0.0,3.0,46,0.00,,FEW180,0.00,VWS V15.00,2015-05-27 08:44:00,
2015-05-27 01:49:00,56.2,36.3,30.00,NW,310,0.0,3.0,47,0.00,,FEW180,0.00,VWS V15.00,2015-05-27 08:49:00,
2015-05-27 01:54:00,55.7,36.8,30.00,NW,310,0.0,0.0,49,0.00,,FEW180,0.00,VWS V15.00,2015-05-27 08:54:00,
2015-05-27 01:59:00,55.5,36.7,30.00,NW,310,0.0,1.0,49,0.00,,FEW180,0.00,VWS V15.00,2015-05-27 08:59:00,
2015-05-27 02:04:00,55.4,36.6,30.00,NW,310,0.0,1.0,49,0.00,,FEW180,0.00,VWS V15.00,2015-05-27 09:04:00,
2015-05-27 02:09:00,55.0,36.7,30.00,NW,310,0.0,1.0,50,0.00,,FEW180,0.00,VWS V15.00,2015-05-27 09:09:00,
2015-05-27 02:14:00,55.1,36.8,30.00,NW,310,0.0,1.0,50,0.00,,FEW180,0.00,VWS V15.00,2015-05-27 09:14:00,
2015-05-27 02:19:00,55.1,36.8,30.00,NW,310,0.0,1.0,50,0.00,,FEW180,0.00,VWS V15.00,2015-05-27 09:19:00,
2015-05-27 02:24:00,54.8,37.0,30.00,NW,310,0.0,1.0,51,0.00,,FEW180,0.00,VWS V15.00,2015-05-27 09:24:00,
2015-05-27 02:29:00,54.4,37.2,30.00,NW,310,0.0,1.0,52,0.00,,FEW180,0.00,VWS V15.00,2015-05-27 09:29:00,
2015-05-27 02:34:00,54.3,37.1,30.01,NW,310,0.0,1.0,52,0.00,,FEW180,0.00,VWS V15.00,2015-05-27 09:34:00,
2015-05-27 02:39:00,54.2,37.5,30.01,SSW,210,0.0,1.0,53,0.00,,FEW180,0.00,VWS V15.00,2015-05-27 09:39:00,
2015-05-27 02:44:00,53.6,37.4,30.01,SSW,207,1.0,1.0,54,0.00,,FEW180,0.00,VWS V15.00,2015-05-27 09:44:00,
2015-05-27 02:49:00,53.6,37.4,30.01,SSW,207,0.0,1.0,54,0.00,,FEW180,0.00,VWS V15.00,2015-05-27 09:49:00,
2015-05-27 02:54:00,53.5,37.3,30.01,SSW,207,0.0,1.0,54,0.00,,FEW180,0.00,VWS V15.00,2015-05-27 09:54:00,
2015-05-27 02:59:00,53.6,37.4,30.01,SSW,207,0.0,1.0,54,0.00,,FEW180,0.00,VWS V15.00,2015-05-27 09:59:00,
2015-05-27 03:04:00,53.3,37.1,30.01,SSW,207,0.0,1.0,54,0.00,,FEW180,0.00,VWS V15.00,2015-05-27 10:04:00,
2015-05-27 03:09:00,53.0,36.8,30.01,SSW,207,0.0,1.0,54,0.00,,FEW180,0.00,VWS V15.00,2015-05-27 10:09:00,
2015-05-27 03:14:00,52.6,36.9,30.01,SSW,207,0.0,1.0,55,0.00,,FEW180,0.00,VWS V15.00,2015-05-27 10:14:00,
2015-05-27 03:19:00,52.1,36.9,30.01,SSW,207,0.0,1.0,56,0.00,,FEW180,0.00,VWS V15.00,2015-05-27 10:19:00,
2015-05-27 03:24:00,52.0,37.2,30.01,SSW,200,0.0,1.0,57,0.00,,FEW180,0.00,VWS V15.00,2015-05-27 10:24:00,
2015-05-27 03:29:00,52.7,37.5,30.01,SSE,150,0.0,1.0,56,0.00,,FEW180,0.00,VWS V15.00,2015-05-27 10:29:00,
2015-05-27 03:34:00,52.7,37.0,30.01,SSE,150,0.0,1.0,55,0.00,,FEW180,0.00,VWS V15.00,2015-05-27 10:34:00,
2015-05-27 03:39:00,51.7,37.8,30.01,NNE,20,0.0,1.0,59,0.00,,FEW180,0.00,VWS V15.00,2015-05-27 10:39:00,
2015-05-27 03:44:00,50.8,37.8,30.01,NNE,19,0.0,1.0,61,0.00,,FEW180,0.00,VWS V15.00,2015-05-27 10:44:00,
2015-05-27 03:49:00,50.4,37.9,30.01,NNE,19,0.0,1.0,62,0.00,,FEW180,0.00,VWS V15.00,2015-05-27 10:49:00,
2015-05-27 03:54:00,50.6,38.1,30.01,NNE,20,0.0,0.0,62,0.00,,FEW180,0.00,VWS V15.00,2015-05-27 10:54:00,
2015-05-27 03:59:00,50.6,38.1,30.01,NNE,19,0.0,0.0,62,0.00,,FEW180,0.00,VWS V15.00,2015-05-27 10:59:00,
2015-05-27 04:04:00,50.3,39.0,30.01,NNE,19,0.0,0.0,65,0.00,,FEW180,0.00,VWS V15.00,2015-05-27 11:04:00,
2015-05-27 04:09:00,49.7,38.8,30.01,NNE,20,0.0,0.0,66,0.00,,FEW180,0.00,VWS V15.00,2015-05-27 11:09:00,
2015-05-27 04:13:00,49.2,39.5,30.01,NNE,19,0.0,0.0,69,0.00,,FEW180,0.00,VWS V15.00,2015-05-27 11:13:00,
2015-05-27 04:18:00,49.0,39.3,30.01,SSE,150,0.0,1.0,69,0.00,,FEW180,0.00,VWS V15.00,2015-05-27 11:18:00,
2015-05-27 04:23:00,49.2,38.7,30.01,South,170,0.0,1.0,67,0.00,,FEW180,0.00,VWS V15.00,2015-05-27 11:23:00,
2015-05-27 04:28:00,49.8,38.5,30.01,South,170,0.0,1.0,65,0.00,,FEW180,0.00,VWS V15.00,2015-05-27 11:28:00,
2015-05-27 04:33:00,50.3,38.2,30.01,South,170,0.0,1.0,63,0.00,,FEW180,0.00,VWS V15.00,2015-05-27 11:33:00,
2015-05-27 04:38:00,50.1,38.8,30.01,South,182,0.0,1.0,65,0.00,,FEW180,0.00,VWS V15.00,2015-05-27 11:38:00,
2015-05-27 04:43:00,49.7,38.8,30.01,South,179,0.0,1.0,66,0.00,,FEW180,0.00,VWS V15.00,2015-05-27 11:43:00,
2015-05-27 04:48:00,49.4,38.9,30.01,South,179,0.0,1.0,67,0.00,,FEW180,0.00,VWS V15.00,2015-05-27 11:48:00,
2015-05-27 04:53:00,48.9,38.4,30.01,South,179,0.0,1.0,67,0.00,,FEW180,0.00,VWS V15.00,2015-05-27 11:53:00,
2015-05-27 04:58:00,48.5,38.4,30.01,South,179,0.0,1.0,68,0.00,,FEW180,0.00,VWS V15.00,2015-05-27 11:58:00,
2015-05-27 05:03:00,48.3,38.2,30.01,South,179,0.0,1.0,68,0.00,,FEW180,0.00,VWS V15.00,2015-05-27 12:03:00,
2015-05-27 05:08:00,48.5,38.8,30.01,South,179,0.0,1.0,69,0.00,,FEW180,0.00,VWS V15.00,2015-05-27 12:08:00,
2015-05-27 05:13:00,48.8,38.7,30.01,SSW,210,0.0,1.0,68,0.00,,FEW180,0.00,VWS V15.00,2015-05-27 12:13:00,
2015-05-27 05:18:00,48.8,38.7,30.01,SSW,210,0.0,1.0,68,0.00,,FEW180,0.00,VWS V15.00,2015-05-27 12:18:00,
2015-05-27 05:23:00,48.6,39.3,30.01,SSW,207,1.0,1.0,70,0.00,,FEW180,0.00,VWS V15.00,2015-05-27 12:23:00,
2015-05-27 05:33:00,48.9,39.2,30.02,SSW,210,0.0,2.0,69,0.00,,FEW180,0.00,VWS V15.00,2015-05-27 12:33:00,
2015-05-27 05:38:00,48.7,39.0,30.02,SSW,210,0.0,2.0,69,0.00,,FEW180,0.00,VWS V15.00,2015-05-27 12:38:00,
2015-05-27 05:43:00,48.4,38.7,30.02,SSW,210,1.0,2.0,69,0.00,,FEW180,0.00,VWS V15.00,2015-05-27 12:43:00,
2015-05-27 05:48:00,48.2,38.9,30.02,SSW,210,0.0,2.0,70,0.00,,FEW180,0.00,VWS V15.00,2015-05-27 12:48:00,
2015-05-27 05:53:00,47.9,38.6,30.02,SSW,210,0.0,0.0,70,0.00,,FEW180,0.00,VWS V15.00,2015-05-27 12:53:00,
2015-05-27 05:58:00,47.4,39.2,30.02,SSW,210,0.0,0.0,73,0.00,,FEW180,0.00,VWS V15.00,2015-05-27 12:58:00,
2015-05-27 06:03:00,47.6,39.4,30.02,SSW,205,0.0,0.0,73,0.00,,FEW180,0.00,VWS V15.00,2015-05-27 13:03:00,
2015-05-27 06:08:00,48.4,39.8,30.02,SSW,205,0.0,0.0,72,0.00,,FEW180,0.00,VWS V15.00,2015-05-27 13:08:00,
2015-05-27 06:13:00,49.4,40.0,30.02,SSW,205,0.0,0.0,70,0.00,,FEW180,0.00,VWS V15.00,2015-05-27 13:13:00,
2015-05-27 06:18:00,50.5,40.7,30.02,SSW,205,0.0,0.0,69,0.00,,FEW180,0.00,VWS V15.00,2015-05-27 13:18:00,
2015-05-27 06:23:00,51.8,40.0,30.02,SSW,205,0.0,0.0,64,0.00,,FEW180,0.00,VWS V15.00,2015-05-27 13:23:00,
2015-05-27 06:28:00,52.7,40.9,30.02,SSW,205,0.0,0.0,64,0.00,,FEW180,0.00,VWS V15.00,2015-05-27 13:28:00,
2015-05-27 06:33:00,53.4,40.7,30.02,SSW,205,0.0,0.0,62,0.00,,FEW180,0.00,VWS V15.00,2015-05-27 13:33:00,
2015-05-27 06:38:00,53.8,40.7,30.02,SSW,205,0.0,0.0,61,0.00,,FEW180,0.00,VWS V15.00,2015-05-27 13:38:00,
2015-05-27 06:43:00,53.4,40.7,30.02,SSW,210,0.0,2.0,62,0.00,,FEW180,0.00,VWS V15.00,2015-05-27 13:43:00,
2015-05-27 06:48:00,53.3,41.0,30.02,SW,214,0.0,2.0,63,0.00,,FEW180,0.00,VWS V15.00,2015-05-27 13:48:00,
2015-05-27 06:53:00,53.7,41.0,30.02,SSW,198,0.0,2.0,62,0.00,,FEW180,0.00,VWS V15.00,2015-05-27 13:53:00,
2015-05-27 06:58:00,54.2,40.6,30.02,SW,224,0.0,2.0,60,0.00,,FEW180,0.00,VWS V15.00,2015-05-27 13:58:00,
2015-05-27 07:03:00,54.6,41.0,30.02,SW,221,0.0,2.0,60,0.00,,FEW180,0.00,VWS V15.00,2015-05-27 14:03:00,
2015-05-27 07:08:00,54.9,41.3,30.02,SW,215,0.0,2.0,60,0.00,,FEW180,0.00,VWS V15.00,2015-05-27 14:08:00,
2015-05-27 07:13:00,55.2,41.1,30.02,SW,228,0.0,2.0,59,0.00,,FEW180,0.00,VWS V15.00,2015-05-27 14:13:00,
2015-05-27 07:18:00,55.3,40.8,30.02,SW,222,0.0,3.0,58,0.00,,FEW180,0.00,VWS V15.00,2015-05-27 14:18:00,
2015-05-27 07:23:00,55.5,41.0,30.02,SSW,213,0.0,3.0,58,0.00,,FEW180,0.00,VWS V15.00,2015-05-27 14:23:00,
2015-05-27 07:28:00,56.2,41.6,30.03,SW,221,0.0,3.0,58,0.00,,FEW180,0.00,VWS V15.00,2015-05-27 14:28:00,
2015-05-27 07:33:00,56.9,41.4,30.03,SW,233,0.0,3.0,56,0.00,,FEW180,0.00,VWS V15.00,2015-05-27 14:33:00,
2015-05-27 07:38:00,57.2,41.7,30.03,SSW,196,0.0,3.0,56,0.00,,FEW180,0.00,VWS V15.00,2015-05-27 14:38:00,
2015-05-27 07:43:00,57.5,41.5,30.03,SW,233,2.0,3.0,55,0.00,,FEW180,0.00,VWS V15.00,2015-05-27 14:43:00,
2015-05-27 07:48:00,57.5,41.0,30.03,SSW,212,1.0,3.0,54,0.00,,FEW180,0.00,VWS V15.00,2015-05-27 14:48:00,
2015-05-27 07:58:00,58.6,41.5,30.03,SSW,213,0.0,2.0,53,0.00,,FEW180,0.00,VWS V15.00,2015-05-27 14:58:00,
2015-05-27 08:03:00,59.2,42.1,30.03,SSW,210,0.0,2.0,53,0.00,,FEW180,0.00,VWS V15.00,2015-05-27 15:03:00,
2015-05-27 08:08:00,60.3,42.1,30.03,SSW,213,0.0,2.0,51,0.00,,FEW180,0.00,VWS V15.00,2015-05-27 15:08:00,
2015-05-27 08:13:00,60.7,40.9,30.03,SSW,205,0.0,2.0,48,0.00,,FEW180,0.00,VWS V15.00,2015-05-27 15:13:00,
2015-05-27 08:18:00,61.0,40.7,30.02,SSW,213,0.0,2.0,47,0.00,,FEW180,0.00,VWS V15.00,2015-05-27 15:18:00,
2015-05-27 08:23:00,61.3,40.9,30.02,SW,217,0.0,2.0,47,0.00,,FEW180,0.00,VWS V15.00,2015-05-27 15:23:00,
2015-05-27 08:28:00,61.2,40.8,30.02,SSW,211,2.0,3.0,47,0.00,,FEW180,0.00,VWS V15.00,2015-05-27 15:28:00,
2015-05-27 08:33:00,61.6,40.1,30.02,SSW,203,0.0,3.0,45,0.00,,FEW180,0.00,VWS V15.00,2015-05-27 15:33:00,
2015-05-27 08:38:00,62.1,40.5,30.02,SSW,207,0.0,3.0,45,0.00,,FEW180,0.00,VWS V15.00,2015-05-27 15:38:00,
2015-05-27 08:43:00,62.5,40.9,30.02,SSW,199,0.0,3.0,45,0.00,,FEW180,0.00,VWS V15.00,2015-05-27 15:43:00,
2015-05-27 08:48:00,63.2,41.0,30.02,SSW,208,0.0,3.0,44,0.00,,FEW180,0.00,VWS V15.00,2015-05-27 15:48:00,
2015-05-27 08:53:00,64.0,42.3,30.02,SSW,208,0.0,3.0,45,0.00,,FEW180,0.00,VWS V15.00,2015-05-27 15:53:00,
2015-05-27 08:58:00,64.5,40.9,30.02,SE,141,0.0,3.0,42,0.00,,FEW180,0.00,VWS V15.00,2015-05-27 15:58:00,
2015-05-27 09:03:00,65.0,42.6,30.02,SE,142,0.0,3.0,44,0.00,,FEW180,0.00,VWS V15.00,2015-05-27 16:03:00,
2015-05-27 09:08:00,65.8,41.5,30.02,SSW,207,0.0,3.0,41,0.00,,FEW180,0.00,VWS V15.00,2015-05-27 16:08:00,
2015-05-27 09:13:00,65.9,41.6,30.02,SSW,208,0.0,3.0,41,0.00,,FEW180,0.00,VWS V15.00,2015-05-27 16:13:00,
2015-05-27 09:18:00,66.4,41.4,30.02,WSW,247,0.0,3.0,40,0.00,,FEW180,0.00,VWS V15.00,2015-05-27 16:18:00,
2015-05-27 09:23:00,67.1,43.3,30.01,SW,226,0.0,3.0,42,0.00,,FEW180,0.00,VWS V15.00,2015-05-27 16:23:00,
2015-05-27 09:27:00,67.6,41.8,30.01,SSE,150,0.0,3.0,39,0.00,,FEW180,0.00,VWS V15.00,2015-05-27 16:27:00,
2015-05-27 09:37:00,67.7,42.5,30.01,SW,214,0.0,3.0,40,0.00,,FEW180,0.00,VWS V15.00,2015-05-27 16:37:00,
2015-05-27 09:42:00,68.1,42.2,30.01,ESE,112,0.0,3.0,39,0.00,,FEW180,0.00,VWS V15.00,2015-05-27 16:42:00,